TUI102 LFPO-LFKC

Flight info

Callsign TUI102
Flight time 1h 20m
Altitude 35000
Route LATRA DCT LAMUT DCT UTUVA DCT TITVA DCT NOQAS DCT OTROT DCT RETNO DCT KOLON DCT NARTI UP991 NIRDO
Aircraft B38M/M-SDE1FGHILORVWXY/HB1

Departure

Time 2026-04-24 05:38
Airport Paris-Orly Airport (LFPO)

Arrival

Time 2026-04-24 06:58
Airport Calvi Sainte Catherine Airport (LFKC)
Time Latitude Longitude Altitude Speed Heading
2026-04-24 05:14 48.73047 2.35855 292 ft 0 kts 134°
2026-04-24 05:25 48.73049 2.35852 291 ft 2 kts 134°
2026-04-24 05:26 48.73062 2.35832 298 ft 3 kts 134°
2026-04-24 05:26 48.73075 2.35811 294 ft 3 kts 133°
2026-04-24 05:26 48.73087 2.35787 297 ft 3 kts 117°
2026-04-24 05:26 48.73094 2.35760 296 ft 3 kts 92°
2026-04-24 05:27 48.73091 2.35733 295 ft 2 kts 62°
2026-04-24 05:27 48.73086 2.35721 294 ft 1 kts 57°
2026-04-24 05:27 48.73085 2.35719 295 ft 0 kts 57°
2026-04-24 05:30 48.73086 2.35722 294 ft 0 kts 64°
2026-04-24 05:30 48.73085 2.35726 294 ft 1 kts 106°
2026-04-24 05:30 48.73079 2.35727 293 ft 1 kts 184°
2026-04-24 05:31 48.73075 2.35712 297 ft 5 kts 244°
2026-04-24 05:31 48.73058 2.35661 295 ft 1 kts 243°
2026-04-24 05:31 48.73054 2.35650 295 ft 5 kts 243°
2026-04-24 05:31 48.73024 2.35579 295 ft 9 kts 228°
2026-04-24 05:32 48.72962 2.35529 292 ft 11 kts 192°
2026-04-24 05:32 48.72881 2.35548 293 ft 13 kts 162°
2026-04-24 05:32 48.72787 2.35589 294 ft 15 kts 164°
2026-04-24 05:32 48.72683 2.35632 292 ft 17 kts 165°
2026-04-24 05:33 48.72578 2.35668 294 ft 16 kts 173°
2026-04-24 05:33 48.72464 2.35663 294 ft 18 kts 197°
2026-04-24 05:33 48.72337 2.35629 292 ft 19 kts 189°
2026-04-24 05:34 48.72104 2.35655 298 ft 12 kts 159°
2026-04-24 05:34 48.72077 2.35680 295 ft 0 kts 141°
2026-04-24 05:35 48.72072 2.35686 294 ft 2 kts 139°
2026-04-24 05:35 48.72050 2.35720 293 ft 5 kts 131°
2026-04-24 05:35 48.72034 2.35751 292 ft 6 kts 126°
2026-04-24 05:35 48.72005 2.35819 292 ft 9 kts 122°
2026-04-24 05:36 48.71972 2.35907 297 ft 10 kts 111°
2026-04-24 05:36 48.71969 2.36000 293 ft 0 kts 76°
2026-04-24 05:36 48.71970 2.36010 293 ft 0 kts 75°
2026-04-24 05:36 48.71971 2.36011 297 ft 1 kts 75°
2026-04-24 05:37 48.71973 2.36025 297 ft 0 kts 75°
2026-04-24 05:37 48.71975 2.36039 295 ft 3 kts 75°
2026-04-24 05:37 48.71977 2.36047 295 ft 0 kts 75°
2026-04-24 05:37 48.71985 2.36097 298 ft 29 kts 76°
2026-04-24 05:38 48.72133 2.36824 296 ft 114 kts 74°
2026-04-24 05:38 48.72410 2.38345 320 ft 181 kts 72°
2026-04-24 05:38 48.72822 2.40322 813 ft 207 kts 73°
2026-04-24 05:38 48.73246 2.42446 1964 ft 207 kts 72°
2026-04-24 05:39 48.73710 2.44509 3114 ft 218 kts 74°
2026-04-24 05:39 48.74082 2.46875 3782 ft 235 kts 82°
2026-04-24 05:39 48.74154 2.49347 4900 ft 242 kts 89°
2026-04-24 05:39 48.74208 2.51970 5754 ft 253 kts 87°
2026-04-24 05:40 48.74271 2.54649 6843 ft 257 kts 89°
2026-04-24 05:40 48.74005 2.57352 7746 ft 265 kts 110°
2026-04-24 05:40 48.72994 2.59716 8673 ft 275 kts 134°
2026-04-24 05:40 48.71353 2.61273 9585 ft 285 kts 160°
2026-04-24 05:41 48.69363 2.61767 10425 ft 295 kts 173°
2026-04-24 05:41 48.67267 2.62148 10957 ft 313 kts 171°
2026-04-24 05:41 48.65021 2.62446 11390 ft 334 kts 182°
2026-04-24 05:41 48.62748 2.61586 12086 ft 344 kts 204°
2026-04-24 05:42 48.60579 2.59959 12868 ft 350 kts 205°
2026-04-24 05:42 48.58401 2.58307 13796 ft 351 kts 205°
2026-04-24 05:42 48.56211 2.56629 14552 ft 355 kts 205°
2026-04-24 05:42 48.53999 2.54926 15305 ft 358 kts 205°
2026-04-24 05:43 48.51769 2.53206 16032 ft 362 kts 205°
2026-04-24 05:43 48.49518 2.51469 16722 ft 365 kts 205°
2026-04-24 05:43 48.47245 2.49717 17424 ft 369 kts 205°
2026-04-24 05:43 48.44880 2.48238 18077 ft 370 kts 194°
2026-04-24 05:44 48.42400 2.47133 18726 ft 373 kts 195°
2026-04-24 05:44 48.39902 2.45998 19327 ft 376 kts 194°
2026-04-24 05:44 48.37422 2.44871 19913 ft 378 kts 194°
2026-04-24 05:44 48.34896 2.43725 20508 ft 380 kts 194°
2026-04-24 05:45 48.32355 2.42573 21103 ft 383 kts 194°
2026-04-24 05:45 48.29761 2.41708 21667 ft 381 kts 181°
2026-04-24 05:45 48.27142 2.42058 22234 ft 379 kts 164°
2026-04-24 05:45 48.24611 2.43225 22765 ft 382 kts 161°
2026-04-24 05:46 48.22083 2.44476 23318 ft 384 kts 160°
2026-04-24 05:46 48.19548 2.45771 23876 ft 386 kts 160°
2026-04-24 05:46 48.16998 2.47097 24306 ft 389 kts 159°
2026-04-24 05:46 48.14442 2.48440 24744 ft 391 kts 159°
2026-04-24 05:47 48.11862 2.49802 25172 ft 394 kts 159°
2026-04-24 05:47 48.09271 2.51170 25583 ft 397 kts 160°
2026-04-24 05:47 48.06640 2.52475 25988 ft 400 kts 161°
2026-04-24 05:47 48.03991 2.53777 26391 ft 402 kts 161°
2026-04-24 05:48 48.01324 2.55091 26785 ft 405 kts 161°
2026-04-24 05:48 47.98643 2.56413 27228 ft 406 kts 161°
2026-04-24 05:48 47.95960 2.57736 27637 ft 408 kts 160°
2026-04-24 05:48 47.93254 2.59067 28009 ft 411 kts 161°
2026-04-24 05:49 47.90531 2.60406 28398 ft 413 kts 161°
2026-04-24 05:49 47.87792 2.61751 28768 ft 416 kts 161°
2026-04-24 05:49 47.85039 2.63102 29135 ft 418 kts 161°
2026-04-24 05:49 47.82266 2.64461 29498 ft 420 kts 161°
2026-04-24 05:50 47.79479 2.65825 29849 ft 423 kts 161°
2026-04-24 05:50 47.76680 2.67194 30211 ft 425 kts 161°
2026-04-24 05:50 47.73873 2.68565 30521 ft 426 kts 161°
2026-04-24 05:50 47.71043 2.69945 30800 ft 429 kts 161°
2026-04-24 05:51 47.68203 2.71329 31064 ft 431 kts 161°
2026-04-24 05:51 47.65340 2.72723 31338 ft 434 kts 161°
2026-04-24 05:51 47.62464 2.74121 31603 ft 436 kts 161°
2026-04-24 05:51 47.59578 2.75523 31900 ft 438 kts 161°
2026-04-24 05:52 47.56680 2.76928 32263 ft 437 kts 161°
2026-04-24 05:52 47.53790 2.78329 32624 ft 438 kts 161°
2026-04-24 05:52 47.50894 2.79730 32961 ft 438 kts 161°
2026-04-24 05:52 47.47997 2.81130 33322 ft 438 kts 161°
2026-04-24 05:53 47.45101 2.82528 33674 ft 438 kts 161°
2026-04-24 05:53 47.42203 2.83925 34024 ft 438 kts 161°
2026-04-24 05:53 47.39306 2.85321 34340 ft 438 kts 161°
2026-04-24 05:53 47.36410 2.86714 34644 ft 438 kts 161°
2026-04-24 05:54 47.33514 2.88106 34934 ft 438 kts 161°
2026-04-24 05:54 47.30606 2.89501 35078 ft 442 kts 161°
2026-04-24 05:54 47.27711 2.90889 35187 ft 441 kts 161°
2026-04-24 05:54 47.24820 2.92273 35191 ft 435 kts 161°
2026-04-24 05:55 47.19092 2.95012 35188 ft 433 kts 161°
2026-04-24 05:55 47.13365 2.97745 35191 ft 433 kts 161°
2026-04-24 05:56 47.07552 3.00162 35190 ft 435 kts 163°
2026-04-24 05:56 47.01715 3.02562 35183 ft 435 kts 163°
2026-04-24 05:57 46.95886 3.04962 35184 ft 435 kts 163°
2026-04-24 05:57 46.90053 3.07359 35178 ft 438 kts 163°
2026-04-24 05:58 46.84153 3.09779 35187 ft 442 kts 163°
2026-04-24 05:58 46.78234 3.12201 35184 ft 441 kts 163°
2026-04-24 05:59 46.72319 3.14615 35182 ft 441 kts 163°
2026-04-24 05:59 46.66405 3.17024 35184 ft 441 kts 163°
2026-04-24 06:00 46.60499 3.19424 35176 ft 440 kts 163°
2026-04-24 06:00 46.54592 3.21819 35184 ft 441 kts 163°
2026-04-24 06:01 46.48697 3.24203 35181 ft 437 kts 163°
2026-04-24 06:01 46.42842 3.26566 35184 ft 437 kts 163°
2026-04-24 06:02 46.36977 3.28929 35181 ft 437 kts 163°
2026-04-24 06:02 46.31127 3.31279 35179 ft 437 kts 163°
2026-04-24 06:03 46.25209 3.33652 35174 ft 445 kts 164°
2026-04-24 06:03 46.19252 3.36035 35180 ft 444 kts 164°
2026-04-24 06:04 46.13294 3.38413 35180 ft 444 kts 164°
2026-04-24 06:04 46.07347 3.40781 35169 ft 450 kts 165°
2026-04-24 06:05 46.01254 3.43202 35179 ft 457 kts 165°
2026-04-24 06:05 45.95119 3.45634 35180 ft 457 kts 165°
2026-04-24 06:06 45.88971 3.48066 35167 ft 460 kts 165°
2026-04-24 06:06 45.85963 3.49680 35152 ft 464 kts 151°
2026-04-24 06:06 45.83239 3.52160 35193 ft 466 kts 148°
2026-04-24 06:07 45.77783 3.57190 35186 ft 466 kts 147°
2026-04-24 06:07 45.72359 3.62275 35180 ft 466 kts 147°
2026-04-24 06:08 45.66903 3.67395 35170 ft 473 kts 147°
2026-04-24 06:08 45.61362 3.72584 35177 ft 477 kts 147°
2026-04-24 06:09 45.55814 3.77767 35179 ft 476 kts 147°
2026-04-24 06:09 45.50263 3.82940 35177 ft 476 kts 147°
2026-04-24 06:10 45.44711 3.88102 35196 ft 477 kts 147°
2026-04-24 06:11 45.36593 3.96041 35174 ft 470 kts 134°
2026-04-24 06:11 45.32581 4.03352 35175 ft 471 kts 126°
2026-04-24 06:12 45.28721 4.10803 35196 ft 473 kts 125°
2026-04-24 06:12 45.24822 4.18409 35197 ft 474 kts 125°
2026-04-24 06:13 45.20970 4.25915 35209 ft 472 kts 125°
2026-04-24 06:13 45.17148 4.33345 35198 ft 462 kts 126°
2026-04-24 06:14 45.13359 4.40689 35187 ft 462 kts 126°
2026-04-24 06:14 45.09306 4.47735 35193 ft 463 kts 130°
2026-04-24 06:15 45.05031 4.54659 35190 ft 469 kts 130°
2026-04-24 06:15 45.00766 4.61626 35204 ft 464 kts 130°
2026-04-24 06:16 44.96600 4.68426 35194 ft 453 kts 130°
2026-04-24 06:16 44.92487 4.75123 35184 ft 451 kts 130°
2026-04-24 06:17 44.88367 4.81814 35176 ft 453 kts 130°
2026-04-24 06:17 44.84188 4.88585 35180 ft 461 kts 130°
2026-04-24 06:18 44.79973 4.95397 35182 ft 461 kts 130°
2026-04-24 06:18 44.75799 5.02127 35196 ft 451 kts 130°
2026-04-24 06:19 44.71712 5.08702 35179 ft 449 kts 130°
2026-04-24 06:19 44.67573 5.15344 35181 ft 449 kts 130°
2026-04-24 06:20 44.63480 5.21897 35180 ft 449 kts 130°
2026-04-24 06:20 44.59351 5.28493 35176 ft 449 kts 131°
2026-04-24 06:21 44.55224 5.35072 35181 ft 449 kts 130°
2026-04-24 06:21 44.51118 5.41598 35175 ft 446 kts 130°
2026-04-24 06:22 44.47703 5.47017 35172 ft 446 kts 130°
2026-04-24 06:22 44.43580 5.53546 35182 ft 449 kts 130°
2026-04-24 06:23 44.39441 5.60087 35178 ft 448 kts 130°
2026-04-24 06:23 44.35740 5.67052 35196 ft 447 kts 123°
2026-04-24 06:24 44.32242 5.74237 35194 ft 446 kts 123°
2026-04-24 06:24 44.28776 5.81362 35187 ft 443 kts 123°
2026-04-24 06:25 44.25307 5.88479 35185 ft 445 kts 123°
2026-04-24 06:25 44.21803 5.95650 35180 ft 448 kts 123°
2026-04-24 06:26 44.18294 6.02815 35179 ft 448 kts 123°
2026-04-24 06:26 44.14784 6.09963 35180 ft 447 kts 123°
2026-04-24 06:27 44.11290 6.17062 35173 ft 442 kts 123°
2026-04-24 06:27 44.07803 6.24129 35172 ft 443 kts 123°
2026-04-24 06:28 44.04318 6.31175 35179 ft 443 kts 123°
2026-04-24 06:28 44.00807 6.38256 35181 ft 445 kts 123°
2026-04-24 06:29 43.97292 6.45328 35167 ft 445 kts 123°
2026-04-24 06:29 43.93809 6.52321 35177 ft 441 kts 123°
2026-04-24 06:30 43.90323 6.59299 35050 ft 434 kts 123°
2026-04-24 06:30 43.88615 6.62714 34595 ft 429 kts 123°
2026-04-24 06:30 43.86916 6.66106 34024 ft 428 kts 123°
2026-04-24 06:30 43.85218 6.69492 33394 ft 426 kts 123°
2026-04-24 06:31 43.83534 6.72846 32854 ft 422 kts 123°
2026-04-24 06:31 43.81864 6.76169 32369 ft 419 kts 123°
2026-04-24 06:31 43.80205 6.79466 31862 ft 416 kts 123°
2026-04-24 06:31 43.78556 6.82741 31358 ft 413 kts 123°
2026-04-24 06:32 43.76920 6.85987 30872 ft 410 kts 122°
2026-04-24 06:32 43.75294 6.89209 30382 ft 408 kts 122°
2026-04-24 06:32 43.73673 6.92417 29813 ft 406 kts 122°
2026-04-24 06:32 43.72024 6.95566 29258 ft 404 kts 128°
2026-04-24 06:33 43.70163 6.98473 28747 ft 402 kts 128°
2026-04-24 06:33 43.68344 7.01364 28322 ft 397 kts 128°
2026-04-24 06:33 43.66550 7.04245 27856 ft 394 kts 128°
2026-04-24 06:33 43.64777 7.07107 27391 ft 391 kts 128°
2026-04-24 06:34 43.63016 7.09952 26941 ft 388 kts 128°
2026-04-24 06:34 43.61266 7.12778 26482 ft 386 kts 128°
2026-04-24 06:34 43.59525 7.15591 26031 ft 385 kts 128°
2026-04-24 06:34 43.57791 7.18388 25578 ft 383 kts 128°
2026-04-24 06:35 43.56059 7.21181 25137 ft 382 kts 128°
2026-04-24 06:35 43.54575 7.24187 24609 ft 379 kts 112°
2026-04-24 06:35 43.53493 7.27486 24180 ft 378 kts 112°
2026-04-24 06:35 43.52391 7.30762 23803 ft 376 kts 112°
2026-04-24 06:36 43.51304 7.34029 23321 ft 375 kts 112°
2026-04-24 06:36 43.50225 7.37292 22876 ft 373 kts 112°
2026-04-24 06:36 43.49158 7.40525 22472 ft 370 kts 112°
2026-04-24 06:36 43.48095 7.43746 22066 ft 367 kts 112°
2026-04-24 06:37 43.47042 7.46931 21676 ft 365 kts 112°
2026-04-24 06:37 43.45993 7.50104 21289 ft 362 kts 112°
2026-04-24 06:37 43.44954 7.53242 20906 ft 360 kts 112°
2026-04-24 06:37 43.43917 7.56368 20530 ft 357 kts 112°
2026-04-24 06:38 43.42889 7.59467 20171 ft 355 kts 112°
2026-04-24 06:38 43.41867 7.62544 19795 ft 353 kts 112°
2026-04-24 06:38 43.40850 7.65600 19426 ft 351 kts 112°
2026-04-24 06:38 43.39835 7.68648 19060 ft 349 kts 112°
2026-04-24 06:39 43.38825 7.71677 18688 ft 347 kts 112°
2026-04-24 06:39 43.37833 7.74650 18317 ft 346 kts 112°
2026-04-24 06:39 43.36832 7.77645 17914 ft 344 kts 112°
2026-04-24 06:39 43.35826 7.80653 17535 ft 341 kts 112°
2026-04-24 06:40 43.34852 7.83562 17190 ft 338 kts 112°
2026-04-24 06:40 43.33874 7.86481 16827 ft 335 kts 112°
2026-04-24 06:40 43.32901 7.89378 16477 ft 332 kts 112°
2026-04-24 06:40 43.31936 7.92251 16130 ft 330 kts 113°
2026-04-24 06:41 43.30976 7.95105 15786 ft 328 kts 113°
2026-04-24 06:41 43.30024 7.97935 15449 ft 325 kts 112°
2026-04-24 06:41 43.29077 8.00743 15103 ft 324 kts 113°
2026-04-24 06:41 43.28134 8.03538 14761 ft 322 kts 113°
2026-04-24 06:42 43.27192 8.06328 14425 ft 323 kts 113°
2026-04-24 06:42 43.26240 8.09143 14083 ft 328 kts 113°
2026-04-24 06:42 43.25276 8.11992 13692 ft 329 kts 113°
2026-04-24 06:42 43.24315 8.14830 13318 ft 327 kts 113°
2026-04-24 06:43 43.23358 8.17652 12959 ft 325 kts 113°
2026-04-24 06:43 43.22410 8.20443 12613 ft 322 kts 113°
2026-04-24 06:43 43.21469 8.23213 12271 ft 319 kts 113°
2026-04-24 06:43 43.20532 8.25966 11934 ft 317 kts 113°
2026-04-24 06:44 43.19619 8.28649 11595 ft 314 kts 113°
2026-04-24 06:44 43.18698 8.31351 11255 ft 312 kts 113°
2026-04-24 06:44 43.17782 8.34040 10921 ft 310 kts 113°
2026-04-24 06:44 43.16877 8.36691 10716 ft 303 kts 113°
2026-04-24 06:45 43.15997 8.39268 10597 ft 294 kts 113°
2026-04-24 06:45 43.15117 8.41746 10456 ft 286 kts 120°
2026-04-24 06:45 43.13761 8.43682 10265 ft 282 kts 146°
2026-04-24 06:45 43.12015 8.44844 10092 ft 277 kts 154°
2026-04-24 06:46 43.10270 8.45901 9810 ft 274 kts 155°
2026-04-24 06:46 43.08524 8.46941 9483 ft 273 kts 155°
2026-04-24 06:46 43.06785 8.47965 9180 ft 271 kts 155°
2026-04-24 06:46 43.05056 8.48975 8887 ft 269 kts 155°
2026-04-24 06:47 43.03337 8.49974 8594 ft 267 kts 155°
2026-04-24 06:47 43.01638 8.50960 8317 ft 265 kts 155°
2026-04-24 06:47 42.99951 8.51937 8036 ft 262 kts 155°
2026-04-24 06:47 42.98275 8.52906 7760 ft 260 kts 155°
2026-04-24 06:48 42.96613 8.53866 7482 ft 259 kts 155°
2026-04-24 06:48 42.94962 8.54819 7208 ft 257 kts 155°
2026-04-24 06:48 42.93322 8.55765 6935 ft 255 kts 155°
2026-04-24 06:48 42.91696 8.56703 6664 ft 253 kts 155°
2026-04-24 06:49 42.90083 8.57633 6389 ft 251 kts 155°
2026-04-24 06:49 42.88478 8.58556 6104 ft 249 kts 155°
2026-04-24 06:49 42.86890 8.59470 5825 ft 247 kts 155°
2026-04-24 06:49 42.85308 8.60380 5552 ft 245 kts 155°
2026-04-24 06:50 42.83744 8.61279 5263 ft 244 kts 155°
2026-04-24 06:50 42.82171 8.62182 4906 ft 246 kts 156°
2026-04-24 06:50 42.80588 8.63092 4565 ft 247 kts 155°
2026-04-24 06:50 42.79006 8.64001 4278 ft 246 kts 155°
2026-04-24 06:51 42.77452 8.64892 4122 ft 239 kts 155°
2026-04-24 06:51 42.75947 8.65756 3999 ft 230 kts 155°
2026-04-24 06:51 42.74516 8.66576 3876 ft 222 kts 155°
2026-04-24 06:51 42.73118 8.67376 3766 ft 214 kts 155°
2026-04-24 06:52 42.71772 8.68146 3633 ft 208 kts 155°
2026-04-24 06:52 42.70419 8.68921 3543 ft 214 kts 155°
2026-04-24 06:52 42.69040 8.69710 3520 ft 218 kts 156°
2026-04-24 06:52 42.67680 8.70490 3360 ft 208 kts 158°
2026-04-24 06:53 42.66368 8.71245 3099 ft 202 kts 156°
2026-04-24 06:53 42.65194 8.72290 2783 ft 202 kts 143°
2026-04-24 06:53 42.64121 8.73443 2572 ft 190 kts 142°
2026-04-24 06:53 42.63127 8.74523 2402 ft 176 kts 142°
2026-04-24 06:54 42.62214 8.75545 2222 ft 166 kts 142°
2026-04-24 06:54 42.61312 8.76516 1903 ft 165 kts 144°
2026-04-24 06:54 42.60390 8.77452 1555 ft 165 kts 147°
2026-04-24 06:54 42.59451 8.78317 1299 ft 160 kts 151°
2026-04-24 06:55 42.58456 8.78805 1107 ft 146 kts 177°
2026-04-24 06:55 42.57438 8.78791 1136 ft 148 kts 183°
2026-04-24 06:55 42.56412 8.78726 1225 ft 149 kts 183°
2026-04-24 06:55 42.55383 8.78582 1358 ft 149 kts 192°
2026-04-24 06:56 42.54393 8.78183 1322 ft 147 kts 200°
2026-04-24 06:56 42.53451 8.77662 1148 ft 144 kts 207°
2026-04-24 06:56 42.52529 8.77099 1032 ft 146 kts 203°
2026-04-24 06:56 42.51561 8.76664 989 ft 148 kts 196°
2026-04-24 06:57 42.50542 8.76471 1120 ft 150 kts 180°
2026-04-24 06:57 42.49678 8.77152 1202 ft 152 kts 118°
2026-04-24 06:57 42.49643 8.78543 1306 ft 156 kts 71°
2026-04-24 06:57 42.50440 8.79492 1022 ft 162 kts 11°
2026-04-24 06:58 42.51570 8.79363 411 ft 163 kts 354°
2026-04-24 06:58 42.52644 8.79318 201 ft 143 kts
2026-04-24 06:58 42.53336 8.79306 154 ft 59 kts 356°
2026-04-24 06:58 42.53689 8.79300 147 ft 25 kts 359°
2026-04-24 06:59 42.53875 8.79297 142 ft 28 kts 358°
2026-04-24 06:59 42.54048 8.79314 140 ft 11 kts 28°
2026-04-24 06:59 42.54098 8.79317 138 ft 2 kts 280°
2026-04-24 06:59 42.54080 8.79304 139 ft 7 kts 190°
2026-04-24 07:00 42.53995 8.79300 141 ft 16 kts 181°
2026-04-24 07:00 42.53859 8.79296 142 ft 22 kts 181°
2026-04-24 07:00 42.53695 8.79296 147 ft 25 kts 174°
2026-04-24 07:00 42.53511 8.79299 148 ft 29 kts 182°
2026-04-24 07:01 42.53301 8.79299 156 ft 31 kts 180°
2026-04-24 07:01 42.53077 8.79300 166 ft 33 kts 180°
2026-04-24 07:01 42.52855 8.79300 182 ft 32 kts 179°
2026-04-24 07:01 42.52631 8.79302 204 ft 32 kts 179°
2026-04-24 07:02 42.52462 8.79302 206 ft 11 kts 192°
2026-04-24 07:02 42.52433 8.79210 198 ft 12 kts 272°
2026-04-24 07:02 42.52483 8.79153 204 ft 9 kts 320°
2026-04-24 07:02 42.52508 8.79103 197 ft 4 kts 300°
2026-04-24 07:03 42.52516 8.79085 200 ft 0 kts 301°